Location: Alvis C Story Elementary School
(33.0968°N, 96.6364°W)
Time: 04:32:58
(UTC+00:00)

Cosmos 2228 Rocket - Pass Details

Date: 04 July 2022
Orbit: 618 x 651 km, 82.5° (Epoch: 14 August)

Event Time Altitude Azimuth Distance (km) Brightness Sun altitude
Rises 09:13:44 0° 9° (N) 2,917 7.5 -21.9°
Reaches altitude 10° 09:16:21 10° 24° (NNE) 2,012 6.7 -21.6°
Maximum altitude 09:19:55 23° 77° (ENE) 1,342 5.3 -21.1°
Drops below altitude 10° 09:23:29 10° 131° (SE) 2,018 5.7 -20.6°
Sets 09:26:07 0° 145° (SE) 2,928 6.4 -20.2°
